• In Belgien
  • Länderverzeichnis
  • Für 7 Tage
  • Wassertemperatur
  • Satellitenkarten
  • Wetterkarte
  • Widgets
  • user-avatar
    Anmelden

    Stündliche Wetter Bjala

    Heute, 19 September, Mittwoch

    Zeit Temperatur Niederschläge Wind Luftdruck Luftfeuchtigkeit
    00:00 +16°C° 0 mm 3 m/S 757 mmHg 76%
    01:00 +16°C° 0 mm 3 m/S 757 mmHg 78%
    02:00 +16°C° 0 mm 3 m/S 757 mmHg 80%
    03:00 +14°C° 0 mm 3 m/S 757 mmHg 81%
    04:00 +14°C° 0 mm 3 m/S 757 mmHg 82%
    05:00 +14°C° 0 mm 3 m/S 757 mmHg 82%
    06:00 +15°C° 0 mm 4 m/S 757 mmHg 76%
    07:00 +18°C° 0 mm 4 m/S 757 mmHg 70%
    08:00 +19°C° 0 mm 4 m/S 757 mmHg 64%
    09:00 +21°C° 0 mm 4 m/S 757 mmHg 57%
    10:00 +22°C° 0 mm 5 m/S 757 mmHg 49%
    11:00 +25°C° 0 mm 5 m/S 757 mmHg 42%
    12:00 +25°C° 0 mm 5 m/S 757 mmHg 40%
    13:00 +26°C° 0 mm 5 m/S 757 mmHg 39%
    14:00 +26°C° 0 mm 5 m/S 756 mmHg 37%
    15:00 +26°C° 0 mm 5 m/S 756 mmHg 41%
    16:00 +25°C° 0 mm 5 m/S 756 mmHg 45%
    17:00 +23°C° 0 mm 5 m/S 756 mmHg 48%
    18:00 +21°C° 0 mm 5 m/S 756 mmHg 57%
    19:00 +19°C° 0 mm 5 m/S 756 mmHg 66%
    20:00 +18°C° 0 mm 4 m/S 756 mmHg 75%
    21:00 +17°C° 0 mm 4 m/S 756 mmHg 78%
    22:00 +17°C° 0 mm 4 m/S 756 mmHg 81%
    23:00 +16°C° 0 mm 3 m/S 756 mmHg 84%

    Morgen, 20 September, Donnerstag

    Zeit Temperatur Niederschläge Wind Luftdruck Luftfeuchtigkeit
    00:00 +16°C° 0 mm 3 m/S 756 mmHg 85%
    01:00 +16°C° 0 mm 3 m/S 756 mmHg 86%
    02:00 +16°C° 0 mm 3 m/S 756 mmHg 87%
    03:00 +14°C° 0 mm 3 m/S 756 mmHg 88%
    04:00 +14°C° 0 mm 4 m/S 755 mmHg 89%
    05:00 +14°C° 0 mm 4 m/S 755 mmHg 89%
    06:00 +15°C° 0 mm 4 m/S 755 mmHg 83%
    07:00 +18°C° 0 mm 4 m/S 755 mmHg 77%
    08:00 +19°C° 0 mm 5 m/S 756 mmHg 72%
    09:00 +21°C° 0 mm 5 m/S 755 mmHg 64%
    10:00 +23°C° 0 mm 5 m/S 755 mmHg 56%
    11:00 +26°C° 0 mm 6 m/S 755 mmHg 48%
    12:00 +27°C° 0 mm 6 m/S 755 mmHg 46%
    13:00 +27°C° 0 mm 6 m/S 755 mmHg 45%
    14:00 +28°C° 0 mm 6 m/S 754 mmHg 43%
    15:00 +27°C° 0 mm 6 m/S 754 mmHg 46%
    16:00 +26°C° 0 mm 5 m/S 754 mmHg 48%
    17:00 +26°C° 0 mm 5 m/S 754 mmHg 51%
    18:00 +23°C° 0 mm 5 m/S 754 mmHg 60%
    19:00 +21°C° 0 mm 5 m/S 754 mmHg 69%
    20:00 +19°C° 0 mm 4 m/S 754 mmHg 79%
    21:00 +19°C° 0 mm 4 m/S 754 mmHg 81%
    22:00 +18°C° 0 mm 4 m/S 754 mmHg 84%
    23:00 +18°C° 0 mm 3 m/S 754 mmHg 87%

    übermorgen, 21 September, Freitag

    Zeit Temperatur Niederschläge Wind Luftdruck Luftfeuchtigkeit
    00:00 +17°C° 0 mm 3 m/S 754 mmHg 87%
    01:00 +17°C° 0 mm 3 m/S 754 mmHg 88%
    02:00 +17°C° 0 mm 3 m/S 754 mmHg 88%
    03:00 +17°C° 0 mm 3 m/S 754 mmHg 88%
    04:00 +15°C° 0 mm 4 m/S 754 mmHg 88%
    05:00 +15°C° 0 mm 4 m/S 754 mmHg 88%
    06:00 +18°C° 0 mm 4 m/S 754 mmHg 81%
    07:00 +19°C° 0 mm 4 m/S 754 mmHg 74%
    08:00 +20°C° 0 mm 4 m/S 754 mmHg 67%
    09:00 +22°C° 0 mm 4 m/S 754 mmHg 58%
    10:00 +25°C° 0 mm 5 m/S 754 mmHg 50%
    11:00 +27°C° 0 mm 5 m/S 755 mmHg 41%
    12:00 +28°C° 0 mm 5 m/S 754 mmHg 40%
    13:00 +29°C° 0 mm 4 m/S 754 mmHg 39%
    14:00 +29°C° 0 mm 4 m/S 754 mmHg 38%
    15:00 +28°C° 0 mm 4 m/S 754 mmHg 42%
    16:00 +27°C° 0 mm 4 m/S 753 mmHg 46%
    17:00 +27°C° 0 mm 4 m/S 753 mmHg 49%
    18:00 +25°C° 0 mm 3 m/S 753 mmHg 59%
    19:00 +22°C° 0 mm 3 m/S 754 mmHg 68%
    20:00 +20°C° 0 mm 2 m/S 754 mmHg 78%
    21:00 +19°C° 0 mm 2 m/S 754 mmHg 81%
    22:00 +19°C° 0 mm 2 m/S 754 mmHg 83%
    23:00 +19°C° 0 mm 1 m/S 754 mmHg 86%

    22 September, Samstag

    Zeit Temperatur Niederschläge Wind Luftdruck Luftfeuchtigkeit
    00:00 +19°C° 0 mm 1 m/S 754 mmHg 86%
    01:00 +19°C° 0 mm 1 m/S 753 mmHg 86%
    02:00 +17°C° 0 mm 2 m/S 753 mmHg 87%
    03:00 +17°C° 0 mm 2 m/S 753 mmHg 86%
    04:00 +17°C° 0 mm 2 m/S 753 mmHg 85%
    05:00 +17°C° 0 mm 2 m/S 753 mmHg 84%
    06:00 +18°C° 0 mm 2 m/S 753 mmHg 77%
    07:00 +20°C° 0 mm 2 m/S 753 mmHg 69%
    08:00 +21°C° 0 mm 2 m/S 753 mmHg 62%
    09:00 +24°C° 0 mm 2 m/S 754 mmHg 53%
    10:00 +26°C° 0 mm 2 m/S 754 mmHg 43%
    11:00 +29°C° 0 mm 2 m/S 754 mmHg 34%
    12:00 +29°C° 0 mm 2 m/S 753 mmHg 33%
    13:00 +30°C° 0 mm 2 m/S 753 mmHg 31%
    14:00 +30°C° 0 mm 3 m/S 752 mmHg 29%
    15:00 +29°C° 0 mm 3 m/S 752 mmHg 33%
    16:00 +29°C° 0 mm 3 m/S 752 mmHg 36%
    17:00 +28°C° 0 mm 3 m/S 752 mmHg 40%
    18:00 +26°C° 0 mm 3 m/S 752 mmHg 48%
    19:00 +24°C° 0 mm 2 m/S 752 mmHg 56%
    20:00 +20°C° 0 mm 2 m/S 752 mmHg 64%
    21:00 +20°C° 0 mm 2 m/S 752 mmHg 66%
    22:00 +20°C° 0 mm 2 m/S 752 mmHg 68%
    23:00 +19°C° 0 mm 2 m/S 752 mmHg 70%

    23 September, Sonntag

    Zeit Temperatur Niederschläge Wind Luftdruck Luftfeuchtigkeit
    00:00 +19°C° 0 mm 2 m/S 752 mmHg 70%
    01:00 +19°C° 0 mm 2 m/S 752 mmHg 70%
    02:00 +18°C° 0 mm 2 m/S 752 mmHg 70%
    03:00 +18°C° 0 mm 2 m/S 752 mmHg 69%
    04:00 +18°C° 0 mm 2 m/S 752 mmHg 67%
    05:00 +18°C° 0 mm 2 m/S 752 mmHg 66%
    06:00 +19°C° 0 mm 2 m/S 752 mmHg 60%
    07:00 +21°C° 0 mm 2 m/S 752 mmHg 55%
    08:00 +23°C° 0 mm 2 m/S 752 mmHg 49%
    09:00 +25°C° 0 mm 3 m/S 753 mmHg 43%
    10:00 +27°C° 0 mm 3 m/S 753 mmHg 38%
    11:00 +29°C° 0 mm 4 m/S 753 mmHg 32%
    12:00 +29°C° 0 mm 4 m/S 753 mmHg 35%
    13:00 +28°C° 0 mm 4 m/S 753 mmHg 38%
    14:00 +28°C° 0 mm 4 m/S 753 mmHg 41%
    15:00 +26°C° 0 mm 6 m/S 753 mmHg 44%
    16:00 +24°C° 0 mm 7 m/S 753 mmHg 46%
    17:00 +23°C° 0 mm 8 m/S 753 mmHg 48%
    18:00 +22°C° 0 mm 7 m/S 754 mmHg 51%
    19:00 +20°C° 0 mm 7 m/S 754 mmHg 54%
    20:00 +19°C° 0 mm 6 m/S 755 mmHg 57%
    21:00 +17°C° 0 mm 6 m/S 755 mmHg 58%
    22:00 +16°C° 0 mm 6 m/S 755 mmHg 58%
    23:00 +16°C° 0 mm 5 m/S 755 mmHg 59%

    24 September, Montag

    Zeit Temperatur Niederschläge Wind Luftdruck Luftfeuchtigkeit
    00:00 +15°C° 0 mm 5 m/S 755 mmHg 60%
    01:00 +15°C° 0 mm 5 m/S 755 mmHg 61%
    02:00 +14°C° 0 mm 4 m/S 755 mmHg 62%
    03:00 +14°C° 0 mm 4 m/S 754 mmHg 63%
    04:00 +14°C° 0 mm 4 m/S 754 mmHg 65%
    05:00 +13°C° 0 mm 4 m/S 754 mmHg 66%
    06:00 +15°C° 0 mm 4 m/S 754 mmHg 64%
    07:00 +17°C° 0 mm 4 m/S 754 mmHg 62%
    08:00 +18°C° 0 mm 4 m/S 754 mmHg 59%
    09:00 +20°C° 0 mm 4 m/S 753 mmHg 56%
    10:00 +22°C° 0 mm 4 m/S 753 mmHg 53%
    11:00 +23°C° 0 mm 4 m/S 753 mmHg 50%
    12:00 +25°C° 0 mm 4 m/S 752 mmHg 50%
    13:00 +25°C° 0 mm 4 m/S 752 mmHg 49%
    14:00 +26°C° 0 mm 5 m/S 751 mmHg 49%
    15:00 +25°C° 0 mm 5 m/S 750 mmHg 54%
    16:00 +23°C° 0 mm 5 m/S 750 mmHg 59%
    17:00 +22°C° 0 mm 6 m/S 750 mmHg 64%
    18:00 +21°C° 0 mm 5 m/S 749 mmHg 70%
    19:00 +20°C° 0 mm 5 m/S 749 mmHg 76%
    20:00 +19°C° 0 mm 5 m/S 749 mmHg 82%
    21:00 +17°C° 0 mm 5 m/S 749 mmHg 84%
    22:00 +17°C° 0 mm 5 m/S 749 mmHg 86%
    23:00 +17°C° 0 mm 5 m/S 749 mmHg 88%
    Mehr zeigen